Profiel Pagina van preekvandeweek
preekvandeweek
9527
OFFLINE
8 jaar geleden
8 jaar geleden
8 jaar geleden
0

Info

preekvandeweek
-
-
Via de mailinglist op onze site, kunt u wekelijks ook onze geselecteerde preek van de week ontvangen.
U kunt ook terecht op de archieven op onze website: www.preekvandeweek.be

Preken

DatumTitelTreffersBeoordeling
16-07-2009 23:00:00Geen kerk zonder priesters (2009)1373 / 1
11-07-2009 23:00:00De kracht van de kwetsbaarheid (2009)1349 / 0
04-07-2009 23:00:00Verwondering (2009)1358 / 0
27-06-2009 23:00:00Sta op! (2009)1464 / 0
27-06-2009 23:00:00 Aan het leven teruggegeven (2009)1261 / 0
27-06-2009 23:00:00Tot leven wekken (2009)1413 / 0
20-06-2009 23:00:00Het stillen van de storm (2009)1708 / 0
13-06-2009 23:00:00Gods koninkrijk (2009)1571 / 0
13-06-2009 23:00:00De kracht van het geduld (2009)1719 / 0
21-04-2009 21:27:00Terwijl we van hem spreken... (2009)1527 / 0
21-04-2009 21:27:00Van vertwijfeling naar hoop (2009)1434 / 0
17-02-2009 19:18:00Dragen of gedragen worden (2009)1568 / 0
18-01-2009 13:51:51De brieven van Paulus1535 / 0
13-01-2009 16:00:00Jezus als Lam Gods (2009)1685 / 0
09-01-2009 17:11:10De keten van bevrijding (2009)1306 / 0
22-11-2008 15:46:00Een partijdige rechter (2008)1508 / 0
12-11-2008 00:01:00Kostbare talenten (2008)1762 / 0
04-11-2008 20:58:00Tempelreiniging (2008)913 / 0
14-10-2008 14:44:33God en de belastingen (2008)1744 / 0
14-10-2008 14:43:26Dragers van Gods beeld (2008)1701 / 0
11-10-2008 19:00:00De feestelijkheid van het leven (2008)1451 / 0
04-10-2008 19:00:00Gods rentmeesters (2008)1543 / 0
04-10-2008 19:00:00De wingerd van de schepping (2008)1409 / 0
04-10-2008 19:00:00Een oproep tot bekering (2008)1547 / 0
27-09-2008 19:00:00Telkens nieuwe kansen (2008)1513 / 0
21-09-2008 14:33:46Twee keren bekering (2008)1675 / 0
14-09-2008 19:00:00Gods ongekende goedheid (2008)1453 / 0
05-09-2008 19:00:00Opkijken naar het kruis (2008)1233 / 0
31-08-2008 19:00:00Elkaars profeten (2008)1539 / 0
30-08-2008 19:00:00Ondanks alles (2008)1595 / 0
23-08-2008 19:00:00Een rots om op te bouwen (2008)1623 / 0
16-08-2008 19:00:00Kerk voor het geluk van de mensen (2008)1430 / 0
11-08-2008 13:26:59Jezus schaakmat gezet (2008)1696 / 0
09-08-2008 19:00:00Over het water lopen (2008)1799 / 0
02-08-2008 19:00:00Breken en delen (2008)1677 / 0
26-07-2008 19:00:00De beste keuze (2008)1785 / 0
19-07-2008 19:00:00Onkruid en tarwe (2008)1684 / 0
19-07-2008 19:00:00Wie, wat is goed? Wat, wie is kwaad? (2008)1664 / 0
19-07-2008 19:00:00Tussen twijfel en overgave (2008)1602 / 0
12-07-2008 19:00:00Een les van hoop en optimisme (2008)1687 / 0
05-07-2008 19:00:00Het juk van de prestatiemaatschappij (2008)1896 / 1
28-06-2008 19:00:00De dienst van het ambt en van het apostolaat (2008)728 / 0
16-06-2008 13:14:12Niet vreesachtig geloven (2008)1655 / 0
14-06-2008 19:00:00Gezonden om te geven (2008)1550 / 0
14-06-2008 19:00:00Op pad gestuurd (2008)1545 / 0
14-06-2008 19:00:00Niet naar de heidenen? (2008)1504 / 0
07-06-2008 19:00:00Wiens brood men eet... (2008)1517 / 0
03-06-2008 13:18:29Wiens brood men eet...1870 / 0
27-05-2008 07:33:00 Op rotsgrond bouwen (2008)1735 / 0
22-05-2008 08:01:46 Eerst Gods koninkrijk2344 / 0
13-05-2008 22:59:00God boven, naast en in ons (2008)1558 / 0
10-05-2008 19:00:00De vijftigste dag (2008)1402 / 0
01-05-2008 02:12:57God verheerlijken (2008)1759 / 0
27-04-2008 19:00:00Geloven in de Kracht die blijft (2008)1427 / 0
27-04-2008 19:00:00Onze definitieve thuis (2008)1513 / 0
26-04-2008 19:00:00Niet als wezen achtergelaten (2008)1649 / 0
26-04-2008 19:00:00Niet ongerust zijn (2008)1484 / 0
08-04-2008 18:44:00De deur voor de schapen (2008)1807 / 0
05-04-2008 19:00:00Mensen onderweg (2008)1809 / 0
29-03-2008 19:00:00Niet zien en toch geloven (2008)1779 / 0
29-03-2008 19:00:00Weten en geloven (2008)1751 / 0
29-03-2008 19:00:00Ongelovige Thomas? (2008)2053 / 0
22-03-2008 17:18:30Opstaan tot nieuw leven (2008)1829 / 0
21-03-2008 19:00:00Verrijzenis, feit of fictie? (2008)1818 / 0
18-03-2008 14:51:12Zijn testament (2008)1634 / 0
18-03-2008 14:50:00Gods roepstem (2008)1465 / 0
18-03-2008 14:44:51 Voorbij de horizon (2008)1536 / 0
18-03-2008 14:43:38Niet in het graf (2008)1694 / 0
04-03-2008 20:54:00De grafsteen wegnemen (2008)1681 / 0
26-02-2008 16:49:00Ziende blinden, blinde zienden (2008)1785 / 1
20-02-2008 10:42:01Bron van levend water (2008)2272 / 0
20-02-2008 10:26:34Een vrouwelijke apostel (2008)1988 / 0
16-02-2008 18:00:00Zijn ware gedaante (2008)1642 / 1
05-02-2008 21:32:00Het duivelse in ons (2008)1712 / 0
02-02-2008 18:00:00Een nieuw licht (2008)1937 / 0
28-01-2008 18:00:00Gelukwensen (2008)2468 / 0
24-01-2008 18:00:00Christenen in de minderheid (2008)1771 / 0
19-01-2008 18:00:00Zie het Lam Gods (2008)2199 / 1
12-01-2008 11:24:16Oprijzen uit het water (2008)1826 / 0
09-01-2008 18:00:00Het kwaad ontkrachten (2008)1934 / 0
02-01-2008 18:00:00De vierde koning (2008)1859 / 0
30-12-2007 18:00:00Het gezin ge1891 / 0
24-12-2007 18:00:00Woord ons gegeven (2007)1529 / 0
11-12-2007 22:44:00Anders dan verwacht (2007)2189 / 0
03-12-2007 17:06:43Jesaja's droom (2007)2265 / 0
01-12-2007 18:00:00Wakker schudden (2007)2342 / 0
23-11-2007 14:36:17Een gekruisigde koning ( 2007)1648 / 0
21-11-2007 10:23:00Beeld van Gods barmhartigheid (2007)1677 / 0
15-11-2007 15:00:21Het einde der tijden of een nieuw begin (2007)?1865 / 1
14-11-2007 18:00:00Standvastigheid (2007)1797 / 0
06-11-2007 21:05:00Een God van levenden - 20071802 / 0
30-10-2007 23:49:00Voor kleine mensen bereikbaar (2007)1814 / 1
21-10-2007 08:22:16De bekoring van farize1788 / 0
16-10-2007 23:47:00Geloven is een werkwoord (2007)1731 / 0
02-10-2007 01:00:0027e zondag door het jaar C - 20071623 / 1
02-10-2007 01:00:0027e zondag door het jaar C - 20071744 / 1
25-09-2007 00:00:00Omkering van rijkdom en armoede (2007)1665 / 0
20-09-2007 01:00:00Met geld vrienden maken (2007)1780 / 2
12-09-2007 07:28:35Een pregnant verhaal (2007)1818 / 0
04-09-2007 01:00:00De eisen van het evangelie (2007)1726 / 0
29-08-2007 19:14:10De eersten laatst, de laatsten eerst (2007)1772 / 0
05-08-2007 01:00:00Moederschap1475 / 0
05-08-2007 01:00:00Een moeder om van te houden1687 / 0
05-08-2007 01:00:00Nederige mensen verheven1410 / 0
05-08-2007 01:00:00Maria ten hemelopneming1406 / 0
05-08-2007 01:00:00Model van geloven1452 / 0
21-07-2007 12:27:10Waar je schat is (2007)1906 / 0
21-07-2007 12:25:3918e zondag door het jaar C - 20071636 / 0
21-07-2007 12:24:1017e zondag door het jaar C - 20071502 / 0
20-07-2007 01:00:00Vrouwen evenzeer als mannen (2007)1593 / 0
20-07-2007 01:00:00Martha en Maria (2007)1820 / 0
15-07-2007 01:00:00Welbehagen en onbehagen (2007)1570 / 0
10-07-2007 21:25:2215e zondag door het jaar C - 20071504 / 0
04-07-2007 19:40:4114e zondag door het jaar C - 20071720 / 0
16-04-2005 20:00:00De roeping van een nieuwe herder (2005)1569 / 0
16-04-2005 20:00:00Herderschap (2005)1710 / 0
09-04-2005 20:00:00Gaande de weg (2005)1665 / 0
09-04-2005 20:00:00Op eigen risico (2005)1602 / 0
02-04-2005 20:00:00Twijfelen is toegestaan (2005)1643 / 0
26-03-2005 20:00:00Paasgeloof (2005)1655 / 1
26-03-2005 20:00:00De weg naar leven (2005)1568 / 0
19-03-2005 18:00:00Blijde inkomst (2005)1792 / 0
12-03-2005 18:00:00Paasmensen (2005)1741 / 0
12-03-2005 18:00:00Het volle leven (2005)1922 / 0
05-03-2005 18:00:00Het licht leren zien (2005)1564 / 0
26-02-2005 18:00:00Grenzen overschrijden (2005)1589 / 0
19-02-2005 18:00:00Gehoor geven aan de Stem (2005)1520 / 0
19-02-2005 18:00:00Bergervaringen (2005)1817 / 1
12-02-2005 18:00:00In de woestijn bekoord (2005)1827 / 0
24-10-2004 01:00:00Onecht en echt gebed (2004)1741 / 2
17-10-2004 01:00:00Met geheven handen (2004)1666 / 0
15-10-2004 19:00:00Het beeld van God (2004)1381 / 0
15-10-2004 19:00:00Het beeld van de keizer en het beeld van God (2004)1331 / 0
10-10-2004 01:00:00Een van de tien (2004)1807 / 1
03-10-2004 01:00:00Bidden om meer geloof (2004)1688 / 1
03-10-2004 01:00:00Geloof en dienstbaarheid1843 / 0
26-09-2004 01:00:00Wacht niet tot het te laat is (2004)1561 / 0
26-09-2004 01:00:00Op medemensen betrokken (2004)1664 / 2
19-09-2004 01:00:00Geld goed gebruiken (2004)1591 / 0
19-09-2004 01:00:00Met geld vrienden maken (2004)1566 / 1
18-07-2004 01:00:00Marta en Maria (2004)1711 / 0
11-07-2004 01:00:0015e zondag door het jaar C - 20041409 / 0
04-07-2004 01:00:0014e zondag door het jaar C - 20041472 / 0
09-02-2002 19:00:00Zonder pretentie (2002)1876 / 0
30-11-2001 18:00:001e zondag in de advent A (2001)1991 / 0
23-11-2001 18:00:00Vol hoop verwachten2167 / 0
23-11-2001 18:00:00Wakker geschud2126 / 0
31-10-2001 18:00:0032e zondag door het jaar C (2001)1539 / 0
19-10-2001 19:00:00Geloof en politiek (2001)1472 / 0
23-09-2001 01:00:00De wezenlijke armoede (2001)1556 / 0
23-09-2001 01:00:00Rentmeesters zijn we allemaal (2001)1537 / 0
15-07-2001 01:00:0015e zondag door het jaar C - 20011340 / 0
08-07-2001 01:00:0014e zondag door het jaar C - 20011443 / 0
01-07-2001 01:00:0013e zondag door het jaar C - 20011580 / 0
30-11-1999 00:00:00De liefde van een zondige vrouw (2001)1651 / 0
30-11-1999 00:00:00Niet achteromkijken (2004)1522 / 0
14-08-1999 19:00:00Ons volkslied888 / 0
De steile weg2021 / 0
Heilig durven zijn933 / 0
De daad bij het woord1806 / 0

  • Eerste lezing:
  • Tweede lezing:
  • Evangelie:
  • Preken:
  • Vieringen: 0
  • Downloads:

Drievuldigheidszondag (B)

  • Eerste lezing: Deut. 4,32-34.39-40
  • Tweede lezing: Rom. 8,14-17
  • Evangelie: Mt. 28,16-20
  • Preken: 103
  • Vieringen: 1
  • Downloads: